Tracking 23610 objects as of 20-Sep-2021
HD Live streaming from Space Station
objects crossing your sky now

STARLINK-2418

Track STARLINK-2418 now!
10-day predictions
STARLINK-2418 is classified as:


NORAD ID: 48097
Int'l Code: 2021-027F
Perigee: 554.2 km
Apogee: 554.5 km
Inclination: 53.1 °
Period: 95.6 minutes
Semi major axis: 6925 km
RCS: Unknown
Launch date: April 7, 2021
Source: United States (US)
Launch site: AIR FORCE EASTERN TEST RANGE (AFETR)
aabbcc
Your satellite tracking list
Your tracking list is empty




NASA's NSSDC Master Catalog

Two Line Element Set (TLE):
1 48097U 21027F   21262.52818341  .00000623  00000-0  60658-4 0  9995
2 48097  53.0550 278.6677 0000150 325.9291  34.1688 15.06399568 26299
Source of the keplerian elements: AFSPC